This is the latest recevied weather packets stored in our database for station/object DH5DY-6. If no packets are shown the sender has not sent any weather packets the latest 10 day(s).
| Time | Temp. | Humidity | Pressure | Rain* | Wind** | Luminosity | Snow |
|---|---|---|---|---|---|---|---|
| 1787739731 | 18.33° C | 82% | 1015.4 hPa | 0 mm | - | 283 W/m² | - |
| 1787739131 | 17.78° C | 83% | 1015.4 hPa | 0 mm | - | 221 W/m² | - |
| 1787738530 | 17.78° C | 83% | 1015.4 hPa | 0 mm | - | 179 W/m² | - |
| 1787737930 | 17.78° C | 83% | 1015.4 hPa | 0 mm | - | 167 W/m² | - |
| 1787737330 | 17.78° C | 83% | 1015.2 hPa | 0 mm | - | 163 W/m² | - |
| 1787736730 | 17.78° C | 84% | 1015.4 hPa | 0 mm | - | 329 W/m² | - |
| 1787736130 | 17.22° C | 84% | 1015.4 hPa | 0 mm | - | 172 W/m² | - |
| 1787735530 | 17.78° C | 84% | 1015.3 hPa | 0 mm | - | 162 W/m² | - |
| 1787734930 | 17.78° C | 85% | 1015.3 hPa | 0 mm | - | 195 W/m² | - |
| 1787734331 | 17.78° C | 85% | 1015.2 hPa | 0 mm | - | 76 W/m² | - |
| 1787733731 | 17.22° C | 85% | 1015 hPa | 0 mm | - | 257 W/m² | - |
| 1787733130 | 17.22° C | 86% | 1015 hPa | 0 mm | - | 158 W/m² | - |
| 1787732530 | 16.67° C | 87% | 1014.9 hPa | 0 mm | - | 195 W/m² | - |
| 1787731930 | 16.67° C | 88% | 1014.9 hPa | 0 mm | - | 195 W/m² | - |
| 1787730733 | 16.11° C | 89% | 1014.7 hPa | 0 mm | - | 107 W/m² | - |
| 1787730130 | 16.11° C | 89% | 1014.8 hPa | 0 mm | - | 120 W/m² | - |
| 1787729529 | 15.56° C | 90% | 1014.7 hPa | 0 mm | - | 81 W/m² | - |
| 1787728930 | 15.56° C | 90% | 1014.7 hPa | 0 mm | - | 63 W/m² | - |
| 1787728330 | 15.56° C | 91% | 1014.6 hPa | 0 mm | - | 81 W/m² | - |
| 1787727729 | 15° C | 93% | 1014.5 hPa | 0 mm | - | 100 W/m² | - |
| 1787727130 | 15° C | 93% | 1014.5 hPa | 0 mm | - | 100 W/m² | - |
| 1787726529 | 15° C | 94% | 1014.5 hPa | 0 mm | - | 74 W/m² | - |
| 1787725929 | 15° C | 94% | 1014.5 hPa | 0 mm | - | 65 W/m² | - |
| 1787725329 | 15° C | 94% | 1014.5 hPa | 0 mm | - | 46 W/m² | - |
| 1787724729 | 14.44° C | 94% | 1014.4 hPa | 0 mm | - | 40 W/m² | - |
* Rain latest hour (hover to see other rain measurements)
** Current wind speed in m/s (hover to see current wind gust speed)